BREEZE-M R/B, 40259

Orbit data source: Space-Track

BREEZE-M R/B, 40259 is space debris in GEO originally from a launch on Sat, 27 Sep 2014 UTC launched from the Tyuratam Missile And Space Complex (TTMTR). Debris objects in space refer to the collection of defunct objects orbiting the Earth. Examples of debris include non-operational satellites, rocket bodies, and fragments generated from explosions, collisions, or faulty payload assembly.

Loading next visibility...
Identifier
40259, 2014-058B
Orbit
GEO
Country
Flag of CISCIS
Related business
Manufacturer
Khrunichev
Mission
Spacecraft
Bus & Motor
BRIZ, Unknown motor
Mass
~1,600 kg wet, 1,600 kg dry
Launch date (UTC)
2014-09-27 (12 years ago)
Launch vehicle
Unknown
Launch site
Tyuratam Missile And Space Complex (TTMTR)
Object type
Payload
Rocket body
Debris
Shape & HBR
Cyl, 2.0 m
Radar Cross Section
15.135 m², Large (>1 m²)

Expand to show TLE details & history
Last TLE update: 22 hours ago

TLE from 22 hours ago
0 BREEZE-M R/B
1 40259U 14058B   26191.66824782 -.00000121  00000-0  00000+0 0  9994
2 40259  10.5613  59.5474 0636127 199.2112 158.2203  0.91686971 39440
Epoch: 2026-07-10T16:02Z
TLE epoch observation values (Epoch: 2026-07-10T16:02:16.611Z)
Latitude
Longitude
-109.6335°
Altitude
41,050.912 km
Speed
2.811 km/s
True Right ascension
03h 58m 06s
True Declination
0° 00' 00"
Sunlit
Object was in daylight at epoch
Visualization orbit readout
Latitude
Unknown
Longitude
Unknown
Altitude
Unknown
Speed
Unknown
Apparent Right ascension
Unknown
Apparent Declination
Unknown
Sunlit
N/A
Visualization observer readout
Local Sidereal Time
02:29:15
Azimuth
Unknown
Elevation
Unknown
Doppler factor
Unknown
Orbital elements
Apogee altitude
41,227.275 km
Perigee altitude
35,532.892 km
Semi-major axis
44,758.221 km
Eccentricity
0.06361
Inclination
10.5613°
RAAN
59.5474°
Arg. of periapsis
199.2112°
True anomaly
160.73774°
Mean anomaly
158.2203°
Eccentric anomaly
159.4969°
Mean motion
0.22921 °/min
Orbital period
1,570.61 mins
BSTAR
0
Loading maneuver chart data...
Computing Atmospheric mass density...
Loading historical data...
Loading historical data...
Loading historical data...
Loading historical data...
Loading historical data...
Loading historical data...
Loading historical data...
Other satellites on launch #58 in the year 2014 (2014-09-27 UTC)

Documentation

Showing up to 5 results
|